Overview Statistics Trail Chart Weather Telemetry Raw packets
 

This is the latest recevied weather packets stored in our database for station/object KC1TEM-13. If no packets are shown the sender has not sent any weather packets the latest 10 day(s).

<< 109 110 111 112 113 114 >>
Time Temp. Humidity Pressure Rain* Wind** Luminosity Snow
1787790992 20° C 83% 1018.5 hPa 0 mm - 0 W/m² -
1787790687 20° C 83% 1018.5 hPa 0 mm - 0 W/m² -
1787790382 20° C 83% 1018.5 hPa 0 mm - 0 W/m² -
1787790078 20° C 82% 1018.4 hPa 0 mm - 0 W/m² -
1787789774 20° C 81% 1018.3 hPa 0 mm - 0 W/m² -
1787789468 20.56° C 80% 1018.2 hPa 0 mm - 0 W/m² -
1787789167 20.56° C 80% 1018.2 hPa 0 mm - 0 W/m² -
1787788861 20.56° C 80% 1018.2 hPa 0 mm - 0 W/m² -
1787788559 20.56° C 80% 1018 hPa 0 mm - 0 W/m² -
1787788254 20.56° C 79% 1017.8 hPa 0 mm - 0 W/m² -
1787787950 20.56° C 80% 1017.9 hPa 0 mm - 0 W/m² -
1787787644 21.11° C 77% 1017.7 hPa 0 mm - 0 W/m² -
1787787343 21.11° C 77% 1017.8 hPa 0 mm - 1 W/m² -
1787787044 21.11° C 76% 1017.5 hPa 0 mm - 2 W/m² -
1787786743 21.11° C 76% 1017.7 hPa 0 mm - 2 W/m² -
1787786438 21.67° C 76% 1017.5 hPa 0 mm - 4 W/m² -
1787786133 21.67° C 74% 1017.6 hPa 0 mm - 5 W/m² -
1787785829 22.22° C 75% 1017.5 hPa 0 mm - 7 W/m² -
1787785525 22.22° C 74% 1017.4 hPa 0 mm - 9 W/m² -
1787785224 22.22° C 74% 1017.4 hPa 0 mm - 11 W/m² -
1787784919 22.78° C 77% 1017.4 hPa 0 mm - 14 W/m² -
1787784618 22.78° C 74% 1017.6 hPa 0 mm - 16 W/m² -
1787784317 22.78° C 74% 1017.4 hPa 0 mm - 18 W/m² -
1787784012 22.78° C 74% 1017.3 hPa 0 mm - 20 W/m² -
1787783709 22.78° C 74% 1017.5 hPa 0 mm - 21 W/m² -

* Rain latest hour (hover to see other rain measurements)
** Current wind speed in m/s (hover to see current wind gust speed)